FIN2NP EVRA-EFHK

Flight info

Callsign FIN2NP
Flight time 0h 40m
Altitude 29000
Route SOKVA DCT ANAMA DCT KEMET DCT KEXLE DCT BEKNA DCT INTOR
Aircraft A320/M-SDE3FGHIRWY/LB1

Departure

Time 2026-05-05 20:00
Airport Riga International Airport (EVRA)

Arrival

Time 2026-05-05 20:40
Airport Helsinki Vantaa Airport (EFHK)
Time Latitude Longitude Altitude Speed Heading
2026-05-05 19:26 56.92287 23.97820 44 ft 0 kts 185°
2026-05-05 19:51 56.92302 23.97822 42 ft 4 kts 185°
2026-05-05 19:51 56.92328 23.97827 40 ft 4 kts 185°
2026-05-05 19:51 56.92355 23.97831 42 ft 2 kts 185°
2026-05-05 19:51 56.92357 23.97831 42 ft 0 kts 185°
2026-05-05 19:55 56.92350 23.97807 42 ft 3 kts 255°
2026-05-05 19:55 56.92349 23.97709 44 ft 12 kts 273°
2026-05-05 19:55 56.92354 23.97548 44 ft 11 kts 264°
2026-05-05 19:55 56.92297 23.97489 44 ft 12 kts 186°
2026-05-05 19:56 56.92198 23.97472 44 ft 14 kts 185°
2026-05-05 19:56 56.92106 23.97457 44 ft 13 kts 185°
2026-05-05 19:56 56.92004 23.97441 41 ft 15 kts 184°
2026-05-05 19:56 56.91907 23.97435 43 ft 13 kts 183°
2026-05-05 19:57 56.91821 23.97421 44 ft 12 kts 185°
2026-05-05 19:57 56.91769 23.97412 44 ft 11 kts 185°
2026-05-05 19:57 56.91657 23.97394 44 ft 11 kts 185°
2026-05-05 19:57 56.91583 23.97382 44 ft 11 kts 185°
2026-05-05 19:58 56.91471 23.97364 41 ft 22 kts 185°
2026-05-05 19:58 56.91347 23.97314 44 ft 15 kts 217°
2026-05-05 19:58 56.91282 23.97175 44 ft 14 kts 235°
2026-05-05 19:58 56.91251 23.97027 45 ft 11 kts 254°
2026-05-05 19:59 56.91268 23.96936 46 ft 8 kts 348°
2026-05-05 19:59 56.91343 23.96947 46 ft 25 kts
2026-05-05 19:59 56.91778 23.97016 43 ft 97 kts
2026-05-05 19:59 56.92645 23.97157 47 ft 151 kts
2026-05-05 20:00 56.93702 23.97329 610 ft 151 kts
2026-05-05 20:00 56.94754 23.97483 1309 ft 155 kts
2026-05-05 20:00 56.95887 23.97663 1642 ft 175 kts
2026-05-05 20:00 56.97173 23.97878 1989 ft 199 kts
2026-05-05 20:01 56.98637 23.98106 2411 ft 223 kts
2026-05-05 20:01 57.00253 23.98395 2929 ft 244 kts
2026-05-05 20:01 57.01973 23.98962 3653 ft 256 kts
2026-05-05 20:01 57.03781 23.99595 4483 ft 265 kts
2026-05-05 20:02 57.05589 24.00218 5314 ft 272 kts
2026-05-05 20:02 57.07475 24.00860 6139 ft 279 kts
2026-05-05 20:02 57.09402 24.01518 6928 ft 285 kts
2026-05-05 20:02 57.11367 24.02193 7742 ft 290 kts
2026-05-05 20:03 57.13374 24.02884 8577 ft 295 kts
2026-05-05 20:03 57.15408 24.03587 9405 ft 300 kts
2026-05-05 20:03 57.17482 24.04305 10143 ft 308 kts
2026-05-05 20:03 57.19673 24.05046 10404 ft 332 kts
2026-05-05 20:04 57.21996 24.05831 10891 ft 345 kts
2026-05-05 20:04 57.23603 24.06385 11364 ft 349 kts
2026-05-05 20:04 57.25974 24.07216 12094 ft 353 kts
2026-05-05 20:04 57.28435 24.08084 12872 ft 357 kts
2026-05-05 20:05 57.30857 24.08937 13610 ft 361 kts
2026-05-05 20:05 57.33375 24.09819 14265 ft 366 kts
2026-05-05 20:05 57.35856 24.10688 14894 ft 370 kts
2026-05-05 20:05 57.38400 24.11581 15524 ft 374 kts
2026-05-05 20:06 57.40973 24.12485 16146 ft 379 kts
2026-05-05 20:06 57.43576 24.13402 16760 ft 383 kts
2026-05-05 20:06 57.46207 24.14326 17375 ft 387 kts
2026-05-05 20:06 57.48875 24.15263 17986 ft 392 kts
2026-05-05 20:07 57.51569 24.16207 18529 ft 396 kts
2026-05-05 20:07 57.54291 24.17163 19068 ft 400 kts
2026-05-05 20:07 57.57038 24.18132 19616 ft 403 kts
2026-05-05 20:07 57.59807 24.19112 20164 ft 407 kts
2026-05-05 20:08 57.62598 24.20105 20707 ft 410 kts
2026-05-05 20:08 57.65416 24.21111 21245 ft 414 kts
2026-05-05 20:08 57.68252 24.22128 21801 ft 417 kts
2026-05-05 20:08 57.71118 24.23154 22338 ft 420 kts
2026-05-05 20:09 57.74003 24.24185 22875 ft 424 kts
2026-05-05 20:09 57.76910 24.25225 23402 ft 427 kts
2026-05-05 20:09 57.79843 24.26273 23838 ft 431 kts
2026-05-05 20:09 57.82797 24.27328 24282 ft 433 kts
2026-05-05 20:10 57.85768 24.28396 24716 ft 436 kts
2026-05-05 20:10 57.88752 24.29475 25141 ft 438 kts
2026-05-05 20:10 57.91753 24.30555 25557 ft 440 kts
2026-05-05 20:10 57.94767 24.31608 25982 ft 441 kts
2026-05-05 20:11 57.97795 24.32639 26395 ft 443 kts
2026-05-05 20:11 58.00839 24.33666 26781 ft 446 kts
2026-05-05 20:11 58.03899 24.34703 27170 ft 448 kts
2026-05-05 20:11 58.06974 24.35755 27550 ft 450 kts
2026-05-05 20:12 58.10061 24.36818 27931 ft 452 kts
2026-05-05 20:12 58.13166 24.37890 28311 ft 454 kts
2026-05-05 20:12 58.16280 24.38971 28669 ft 457 kts
2026-05-05 20:12 58.19410 24.40064 28874 ft 457 kts
2026-05-05 20:13 58.22489 24.41155 28899 ft 441 kts
2026-05-05 20:13 58.28415 24.43252 28898 ft 429 kts
2026-05-05 20:14 58.34278 24.45272 28893 ft 428 kts
2026-05-05 20:14 58.40140 24.47300 28896 ft 428 kts
2026-05-05 20:15 58.46000 24.49365 28896 ft 428 kts
2026-05-05 20:15 58.51865 24.51440 28898 ft 428 kts
2026-05-05 20:16 58.57727 24.53518 28899 ft 428 kts
2026-05-05 20:16 58.63590 24.55598 28901 ft 429 kts
2026-05-05 20:17 58.69458 24.57690 28901 ft 429 kts
2026-05-05 20:17 58.75324 24.59796 28895 ft 429 kts
2026-05-05 20:18 58.81193 24.61898 28896 ft 429 kts
2026-05-05 20:18 58.87060 24.64010 28890 ft 429 kts
2026-05-05 20:19 58.92935 24.66130 28887 ft 429 kts
2026-05-05 20:19 58.98794 24.68256 28711 ft 424 kts
2026-05-05 20:19 59.01676 24.69309 28438 ft 418 kts
2026-05-05 20:20 59.04522 24.70350 28163 ft 415 kts
2026-05-05 20:20 59.07360 24.71388 27887 ft 413 kts
2026-05-05 20:20 59.10181 24.72415 27630 ft 412 kts
2026-05-05 20:20 59.12994 24.73438 27361 ft 410 kts
2026-05-05 20:21 59.15794 24.74458 27104 ft 409 kts
2026-05-05 20:21 59.18580 24.75479 26833 ft 405 kts
2026-05-05 20:21 59.21335 24.76500 26380 ft 402 kts
2026-05-05 20:21 59.24083 24.77521 25920 ft 401 kts
2026-05-05 20:22 59.26812 24.78534 25451 ft 399 kts
2026-05-05 20:22 59.29538 24.79542 24957 ft 398 kts
2026-05-05 20:22 59.32264 24.80548 24475 ft 397 kts
2026-05-05 20:22 59.34977 24.81549 23967 ft 397 kts
2026-05-05 20:23 59.37696 24.82558 23471 ft 398 kts
2026-05-05 20:23 59.40410 24.83621 22961 ft 399 kts
2026-05-05 20:23 59.43061 24.85399 22498 ft 406 kts 14°
2026-05-05 20:23 59.45613 24.87515 22039 ft 403 kts 14°
2026-05-05 20:24 59.48229 24.89696 21570 ft 401 kts 14°
2026-05-05 20:24 59.50790 24.91827 21134 ft 398 kts 14°
2026-05-05 20:24 59.53335 24.93945 20697 ft 396 kts 14°
2026-05-05 20:24 59.55868 24.96053 20264 ft 394 kts 14°
2026-05-05 20:25 59.58352 24.98122 19844 ft 392 kts 14°
2026-05-05 20:25 59.60860 25.00211 19416 ft 390 kts 14°
2026-05-05 20:25 59.63391 25.02320 18985 ft 389 kts 14°
2026-05-05 20:25 59.65849 25.04379 18571 ft 388 kts 14°
2026-05-05 20:26 59.68327 25.06461 18146 ft 387 kts 14°
2026-05-05 20:26 59.70795 25.08541 17690 ft 385 kts 14°
2026-05-05 20:26 59.73261 25.10623 17274 ft 383 kts 14°
2026-05-05 20:26 59.75704 25.12688 16863 ft 380 kts 14°
2026-05-05 20:27 59.78134 25.14744 16452 ft 378 kts 15°
2026-05-05 20:27 59.80547 25.16787 16044 ft 376 kts 15°
2026-05-05 20:27 59.82953 25.18822 15645 ft 375 kts 15°
2026-05-05 20:27 59.85342 25.20846 15237 ft 373 kts 15°
2026-05-05 20:28 59.86306 25.21671 14795 ft 369 kts 10°
2026-05-05 20:28 59.88760 25.23051 14255 ft 365 kts
2026-05-05 20:28 59.91224 25.23872 14083 ft 354 kts 360°
2026-05-05 20:29 59.93653 25.24604 13681 ft 352 kts 359°
2026-05-05 20:29 59.96079 25.25291 13212 ft 351 kts 359°
2026-05-05 20:29 59.98487 25.25963 12847 ft 347 kts
2026-05-05 20:29 60.00866 25.26634 12439 ft 344 kts
2026-05-05 20:30 60.03213 25.27311 12083 ft 339 kts
2026-05-05 20:30 60.05540 25.27996 11714 ft 335 kts
2026-05-05 20:30 60.07826 25.28684 11334 ft 331 kts
2026-05-05 20:30 60.10087 25.29372 10934 ft 325 kts
2026-05-05 20:31 60.12268 25.30042 10660 ft 308 kts
2026-05-05 20:31 60.14348 25.30682 10226 ft 298 kts
2026-05-05 20:31 60.16375 25.31295 9723 ft 292 kts
2026-05-05 20:31 60.18362 25.31890 9143 ft 286 kts
2026-05-05 20:32 60.20305 25.32470 8645 ft 278 kts
2026-05-05 20:32 60.22183 25.33037 8246 ft 267 kts
2026-05-05 20:32 60.23987 25.33586 7868 ft 257 kts
2026-05-05 20:32 60.25726 25.34115 7512 ft 252 kts
2026-05-05 20:33 60.27458 25.34631 7130 ft 251 kts
2026-05-05 20:33 60.29162 25.35140 6767 ft 250 kts
2026-05-05 20:33 60.30879 25.35661 6387 ft 250 kts
2026-05-05 20:33 60.32593 25.36181 5979 ft 249 kts
2026-05-05 20:34 60.34304 25.36701 5643 ft 246 kts
2026-05-05 20:34 60.35957 25.37210 5509 ft 236 kts
2026-05-05 20:34 60.37565 25.37704 5375 ft 232 kts
2026-05-05 20:34 60.39156 25.37810 5241 ft 227 kts 348°
2026-05-05 20:35 60.40655 25.36928 5097 ft 224 kts 332°
2026-05-05 20:35 60.41948 25.35148 4594 ft 226 kts 315°
2026-05-05 20:35 60.43092 25.32987 4216 ft 224 kts 313°
2026-05-05 20:35 60.43973 25.30436 3963 ft 218 kts 294°
2026-05-05 20:36 60.44366 25.27542 3810 ft 210 kts 276°
2026-05-05 20:36 60.44288 25.24635 3633 ft 206 kts 259°
2026-05-05 20:36 60.43775 25.21961 3412 ft 205 kts 242°
2026-05-05 20:36 60.42888 25.19700 3149 ft 205 kts 232°
2026-05-05 20:37 60.41937 25.17584 2872 ft 200 kts 232°
2026-05-05 20:37 60.41320 25.16212 2718 ft 190 kts 232°
2026-05-05 20:37 60.40195 25.13711 2349 ft 174 kts 233°
2026-05-05 20:37 60.39406 25.11958 2105 ft 163 kts 233°
2026-05-05 20:38 60.38676 25.10341 1911 ft 147 kts 234°
2026-05-05 20:38 60.38010 25.08861 1705 ft 138 kts 235°
2026-05-05 20:38 60.37370 25.07439 1508 ft 135 kts 235°
2026-05-05 20:38 60.36740 25.06040 1317 ft 134 kts 233°
2026-05-05 20:39 60.36115 25.04654 1100 ft 133 kts 234°
2026-05-05 20:39 60.35491 25.03273 928 ft 133 kts 231°
2026-05-05 20:39 60.34871 25.01900 727 ft 133 kts 230°
2026-05-05 20:39 60.34254 25.00534 553 ft 131 kts 230°
2026-05-05 20:40 60.33638 24.99165 321 ft 131 kts 230°
2026-05-05 20:40 60.33028 24.97820 209 ft 131 kts 229°
2026-05-05 20:40 60.32486 24.96619 175 ft 92 kts 227°
2026-05-05 20:40 60.32183 24.95952 176 ft 21 kts 227°
2026-05-05 20:41 60.32064 24.95758 174 ft 27 kts 210°
2026-05-05 20:41 60.31907 24.95620 170 ft 13 kts 197°
2026-05-05 20:41 60.31861 24.95593 170 ft 5 kts 192°
2026-05-05 20:41 60.31825 24.95594 169 ft 5 kts 165°
2026-05-05 20:42 60.31808 24.95673 169 ft 13 kts 81°
2026-05-05 20:42 60.31861 24.95811 169 ft 12 kts 47°
2026-05-05 20:42 60.31917 24.95937 168 ft 11 kts 52°
2026-05-05 20:42 60.31905 24.96068 167 ft 11 kts 137°
2026-05-05 20:43 60.31854 24.96202 164 ft 13 kts 105°
2026-05-05 20:43 60.31872 24.96361 163 ft 11 kts 54°
2026-05-05 20:43 60.31923 24.96474 163 ft 10 kts 47°
2026-05-05 20:43 60.31945 24.96532 163 ft 1 kts 74°
2026-05-05 20:44 60.31935 24.96567 163 ft 4 kts 134°
2026-05-05 20:44 60.31918 24.96600 163 ft 3 kts 136°
2026-05-05 20:44 60.31909 24.96617 163 ft 2 kts 137°
2026-05-05 20:44 60.31907 24.96621 163 ft 0 kts 137°